Location: Andiroba
(19.8650°S, 43.9258°W)
Time: 03:15:40
(UTC+00:00)

Cosmos 1725 Rocket - Pass Details

Date: 21 September 2024
Orbit: 962 x 989 km, 82.9° (Epoch: 08 October)

Event Time Altitude Azimuth Distance (km) Brightness Sun altitude
Rises 21:05:34 0° 214° (SW) 3,677 7.6 -4.1°
Reaches altitude 10° 21:09:31 10° 239° (WSW) 2,717 7.4 -5.0°
Maximum altitude 21:12:22 14° 266° (W) 2,455 7.8 -5.7°
Drops below altitude 10° 21:15:13 10° 294° (WNW) 2,698 7.5 -6.4°
Sets 21:19:10 0° 319° (NW) 3,633 7.6 -7.3°
